THOR ABLESTAR DEB, 155

Orbit data source: Space-Track

THOR ABLESTAR DEB, 155 is space debris in LEO originally from a launch on Thu, 29 Jun 1961 UTC launched from the Air Force Eastern Test Range (AFETR). Debris objects in space refer to the collection of defunct objects orbiting the Earth. Examples of debris include non-operational satellites, rocket bodies, and fragments generated from explosions, collisions, or faulty payload assembly.

Loading next visibility...
Identifier
155, 1961-015AR
Orbit
LEO
Country
Flag of USUS
Related business
Manufacturer
Unknown
Mission
Spacecraft
Bus & Motor
Unknown
Mass
Unknown
Launch date (UTC)
1961-06-29 (64 years ago)
Launch vehicle
Unknown
Launch site
Air Force Eastern Test Range (AFETR)
Object type
Payload
Rocket body
Debris
Shape & HBR
Unknown
Radar Cross Section
Small (<0.1 m²)

Expand to show TLE details & history
Last TLE update: 1 day ago

TLE from 1 day ago
0 THOR ABLESTAR DEB
1 00155U 61015AR  25260.05864348  .00001962  00000-0  52258-3 0  9990
2 00155  66.8749 280.1265 0031188 116.6686 243.7623 14.50301735321475
Epoch: 2025-09-17T01:24Z
TLE epoch observation values (Epoch: 2025-09-17T01:24:26.796Z)
Latitude
-0.00008°
Longitude
-97.22522°
Altitude
736.654 km
Speed
7.482 km/s
True Right ascension
18h 40m 30s
True Declination
0° 00' 00"
Sunlit
Object was in daylight at epoch
Visualization orbit readout
Latitude
Unknown
Longitude
Unknown
Altitude
Unknown
Speed
Unknown
Apparent Right ascension
Unknown
Apparent Declination
Unknown
Sunlit
N/A
Visualization observer readout
Local Sidereal Time
18:49:12
Azimuth
Unknown
Elevation
Unknown
Doppler factor
Unknown
Orbital elements
Apogee altitude
745.149 km
Perigee altitude
700.855 km
Semi-major axis
7,101.139 km
Eccentricity
0.00312
Inclination
66.8749°
RAAN
280.1265°
Arg. of periapsis
116.6686°
True anomaly
243.44229°
Mean anomaly
243.7623°
Eccentric anomaly
243.60224°
Mean motion
3.62703 °/min
Orbital period
99.25 mins
BSTAR
0.00052258
Loading maneuver chart data...
Computing Atmospheric mass density...

Documentation

Showing up to 5 results
|